Volver al catálogo

STARLINK-32664

ActivoComunicacionesVLEO
NORAD 62204·PAYLOAD·🇺🇸 United States

Lanzado Dec 4, 2024 desde Cape Canaveral Space Force Station

Loading…

Próximos Pases (próximas 24 horas)

TLE

ActualizadoSource: CelesTrak SupGP

Época: Sep 15, 2026, 03:00 UTC

1 62204C 24229N   26258.12548611  .00125470  00000+0  66667-3 0  2584
2 62204  42.9847 231.5498 0027519 136.6028 302.6761 15.78856258    13

Sigue STARLINK-32664 en tiempo real con AllMySat

Download on the App Store